Tracking 19177 objects as of 24-May-2018
HD Live streaming from Space Station
objects crossing your sky now

NAVSTAR 68 (USA 242)

Track NAVSTAR 68 (USA 242) now!
NAVSTAR 68 (USA 242) is classified as:


NORAD ID: 39166
Int'l Code: 2013-023A
Perigee: 20,034.0 km
Apogee: 20,344.9 km
Inclination: 56.0 °
Period: 718.0 minutes
Semi major axis: 26560 km
RCS: 0.2666 m2 (medium)
Launch date: May 15, 2013
Source: United States (US)
Launch site: AIR FORCE EASTERN TEST RANGE (AFETR)
PRN: 27

NAVSTAR 68 (USA 242) will become the fourth member with the latest enhancements to increase accuracy and security to populate the network since 2010.
aabbcc
Your satellite tracking list
Your tracking list is empty




NASA's NSSDC Master Catalog

Two Line Element Set (TLE):
1 39166U 13023A   18143.57853564 -.00000099 +00000-0 +00000-0 0  9993
2 39166 056.0026 026.6834 0058522 021.9651 338.3211 02.00562780036786
Source of the keplerian elements: AFSPC